[[{"header":{"parameterUnit":"m.s-1","parameterCategory":2,"la1":30.2991,"la2":30.254,"lo1":-89.0895,"lo2":-89.0444,"dy":0.0017,"dx":0.0017,"nx":28,"ny":28,"refTime":"2024-02-16T03:00:00:Z","depth":"0","parameterNumber":2,"parameterNumberName":"U-component_of_CURRENTS"},"data":[0,0,0,0,0,0,0,0,0,0,0,0,0,0,0,0,0,0,0,0,0,0,0,0,0,0,0,0,0,0,0,0,0,0,0,0,0,0,0,0,0,0,0,0,0,0,0,0,0,0,0,0,0,0,0,0,0,0,-0.2489,-0.2489,0,-0.2508,-0.2508,-0.2508,-0.2483,-0.2483,-0.2482,-0.2481,-0.2497,-0.2498,-0.2499,0,0,0,0,0,0,0,0,0,0,0,0,0,-0.2449,-0.245,-0.2489,-0.2489,-0.2489,-0.2508,-0.2508,-0.2508,-0.2484,-0.2483,-0.2482,-0.2481,-0.2496,-0.2498,-0.2499,0,0,0,0,0,0,0,0,0,0,0,0,0,-0.2466,-0.245,-0.2489,-0.248,-0.248,-0.2508,-0.2508,-0.2508,-0.2484,-0.2483,-0.2481,-0.248,-0.2496,-0.2497,-0.2499,-0.2534,0,0,-0.2504,-0.2505,0,0,0,0,0,0,0,0,-0.2465,-0.2467,-0.2481,-0.2481,-0.248,-0.2493,-0.25,-0.2517,-0.2484,-0.2481,-0.2481,-0.248,-0.2497,-0.2498,-0.2503,-0.2535,-0.2535,-0.2505,-0.2506,-0.2506,-0.2507,0,0,0,0,0,0,0,-0.2464,-0.2467,-0.2495,-0.2482,-0.2481,-0.2482,-0.2482,-0.2503,-0.2494,-0.2481,-0.248,-0.2484,-0.2496,-0.2501,-0.2503,-0.2536,-0.2505,-0.2506,-0.2507,-0.2508,-0.2579,-0.258,0,0,0,0,0,0,-0.2464,-0.2466,-0.2495,-0.2496,-0.2471,-0.2483,-0.2484,-0.2489,-0.2494,-0.2494,-0.2485,-0.2483,-0.2499,-0.2501,-0.2504,-0.2524,-0.2506,-0.2508,-0.2509,-0.2578,-0.2579,-0.258,0,0,0,0,0,0,-0.2463,-0.2467,-0.2494,-0.2482,-0.2485,-0.2485,-0.2491,-0.249,-0.249,-0.2497,-0.2497,-0.2485,-0.2498,-0.2501,-0.2521,-0.2525,-0.2509,-0.251,-0.2577,-0.2578,-0.2579,-0.2578,0,0,0,0,0,0,-0.2462,-0.2466,-0.2468,-0.2482,-0.2486,-0.2511,-0.2492,-0.2492,-0.2496,-0.2493,-0.2498,-0.2498,-0.2497,-0.2519,-0.2523,-0.2527,-0.2512,-0.2576,-0.2578,-0.2579,-0.2577,-0.2579,-0.2581,0,0,0,0,0,-0.2461,-0.2469,-0.2468,-0.2471,-0.2489,-0.2512,-0.2514,-0.2509,-0.2497,-0.2503,-0.2505,-0.2498,-0.2531,-0.2521,-0.2526,-0.253,-0.2575,-0.2577,-0.2579,-0.2576,-0.2579,-0.2581,0,0,0,0,0,0,-0.2452,-0.2468,-0.2466,-0.2478,-0.2494,-0.2508,-0.2511,-0.2512,-0.2519,-0.2513,-0.2514,-0.2515,-0.2532,-0.2539,-0.2528,-0.2557,-0.2551,-0.2554,-0.2547,-0.255,-0.2551,-0.2551,-0.2513,0,0,0,0,0,-0.2453,-0.2459,-0.2479,-0.2487,-0.2494,-0.2503,-0.251,-0.2512,-0.2522,-0.2523,-0.2527,-0.2534,-0.2547,-0.2553,-0.2566,-0.2589,-0.2585,-0.2594,-0.2596,-0.2598,-0.2602,-0.2591,-0.2592,-0.2586,-0.2586,-0.2586,0,0,-0.245,-0.246,-0.2463,-0.2485,-0.2492,-0.2513,-0.2503,-0.2517,-0.2532,-0.2526,-0.254,-0.2544,-0.2556,-0.2573,-0.2582,-0.2577,-0.26,-0.26,-0.2601,-0.2605,-0.2593,-0.2593,-0.2594,-0.2587,-0.2587,-0.2587,0,0,-0.2456,-0.2459,-0.2469,-0.2486,-0.2505,-0.2516,-0.2522,-0.2539,-0.254,-0.2563,-0.2557,-0.2565,-0.2587,-0.2592,-0.2599,-0.2625,-0.2611,-0.2627,-0.2635,-0.2624,-0.2624,-0.2624,-0.2626,-0.2626,-0.2627,-0.2627,-0.2627,0,-0.2453,-0.2467,-0.2477,-0.2497,-0.2508,-0.2519,-0.2537,-0.2552,-0.2573,-0.2575,-0.2567,-0.2589,-0.2597,-0.2614,-0.262,-0.2628,-0.2621,-0.2621,-0.2625,-0.2624,-0.2624,-0.2626,-0.2626,-0.2627,-0.2627,-0.2627,-0.2627,0,-0.247,-0.2484,-0.2492,-0.2518,-0.2535,-0.2551,-0.2575,-0.2588,-0.2588,-0.2597,-0.2608,-0.2615,-0.2624,-0.2629,-0.2634,-0.264,-0.2636,-0.2626,-0.2613,-0.2624,-0.2626,-0.2626,-0.2627,-0.2627,-0.2627,-0.2627,0,0,-0.2453,-0.2495,-0.2495,-0.2506,-0.2544,-0.2557,-0.2587,-0.261,-0.2621,-0.263,-0.2639,-0.2653,-0.2644,-0.2652,-0.2652,-0.2647,-0.2643,-0.2636,-0.2635,-0.2629,-0.2624,-0.264,-0.2641,-0.2623,-0.2623,-0.2623,-0.2627,0,-0.2458,-0.2491,-0.2514,-0.2541,-0.2556,-0.258,-0.2606,-0.2629,-0.2644,-0.2659,-0.2657,-0.2668,-0.2658,-0.2657,-0.265,-0.265,-0.2642,-0.2644,-0.2623,-0.2623,-0.2627,-0.2641,-0.2543,-0.254,-0.2627,-0.2627,-0.2627,0,-0.2455,-0.248,-0.2507,-0.2543,-0.2551,-0.2573,-0.2602,-0.2629,-0.2661,-0.2671,-0.2677,-0.268,-0.2686,-0.2668,-0.2658,-0.2656,-0.2641,-0.2634,-0.2633,-0.2649,-0.2639,-0.2543,-0.2536,-0.249,-0.2627,-0.2627,-0.2627,0,-0.2417,-0.2464,-0.2479,-0.2494,-0.2548,-0.2558,-0.2582,-0.2622,-0.2646,-0.2675,-0.2696,-0.2692,-0.2701,-0.2674,-0.2677,-0.2657,-0.2669,-0.2635,-0.2636,-0.2637,-0.2552,-0.2547,-0.2488,-0.2619,-0.2619,-0.2619,-0.2619,0,-0.2402,-0.2412,-0.2461,-0.2472,-0.2487,-0.2533,-0.2555,-0.2584,-0.2635,-0.266,-0.2691,-0.2713,-0.2701,-0.2714,-0.2688,-0.268,-0.2675,-0.2645,-0.2639,-0.2552,-0.2547,-0.2502,-0.2509,-0.2619,-0.2619,-0.2619,-0.2619,0,-0.235,-0.239,-0.2403,-0.2454,-0.2468,-0.2473,-0.2536,-0.2552,-0.2618,-0.2655,-0.2665,-0.273,-0.2745,-0.2752,-0.2733,-0.2707,-0.2636,-0.2686,-0.2601,-0.2585,-0.2524,-0.2536,-0.2465,-0.2385,-0.2663,-0.2663,-0.2664,0,-0.2323,-0.2324,-0.2368,-0.2371,-0.2391,-0.2419,-0.2435,-0.2517,-0.2547,-0.2658,-0.2667,-0.273,-0.2756,-0.2775,-0.2746,-0.272,-0.2651,-0.261,-0.2552,-0.2518,-0.2526,-0.2484,-0.2418,-0.2436,-0.2434,-0.2433,-0.2432,0,-0.2253,-0.2264,-0.2278,-0.2288,-0.2302,-0.2327,-0.2367,-0.2397,-0.2493,-0.2555,-0.2629,-0.2672,-0.2737,-0.2699,-0.2709,-0.2658,-0.2522,-0.2585,-0.2547,-0.2354,-0.2303,-0.2224,-0.2455,-0.2421,-0.2422,-0.2423,-0.2423,-0.2424,-0.2177,-0.2163,-0.2172,-0.2173,-0.2195,-0.2204,-0.2187,-0.2271,-0.2322,-0.2404,-0.2515,-0.2598,-0.2618,-0.2627,-0.2593,-0.2478,-0.2475,-0.2358,-0.2379,-0.2343,-0.2252,-0.2487,-0.2455,-0.2456,-0.2457,-0.2458,-0.2459,0,-0.2062,-0.2056,-0.2051,-0.2046,-0.2021,-0.2075,-0.2107,-0.209,-0.212,-0.229,-0.2364,-0.2502,-0.2444,-0.2464,-0.2392,-0.229,-0.217,-0.2197,-0.208,-0.2022,-0.2214,-0.2189,-0.21,-0.21,-0.21,-0.21,-0.21,-0.21,-0.1996,-0.1946,-0.1945,-0.1862,-0.1857,-0.1782,-0.177,-0.1798,-0.1897,-0.2047,-0.223,-0.2416,-0.2432,-0.2449,-0.2274,-0.2144,-0.2022,-0.1957,-0.1954,-0.2074,-0.2088,-0.2102,-0.2077,-0.1965,-0.1965,-0.1644,-0.1642,-0.164]},{"header":{"parameterUnit":"m.s-1","parameterCategory":2,"la1":30.2991,"la2":30.254,"lo1":-89.0895,"lo2":-89.0444,"dy":0.0017,"dx":0.0017,"nx":28,"ny":28,"refTime":"2024-02-16T03:00:00:Z","depth":"0","parameterNumber":3,"parameterNumberName":"V-component_of_CURRENTS"},"data":[0,0,0,0,0,0,0,0,0,0,0,0,0,0,0,0,0,0,0,0,0,0,0,0,0,0,0,0,0,0,0,0,0,0,0,0,0,0,0,0,0,0,0,0,0,0,0,0,0,0,0,0,0,0,0,0,0,0,-0.0413,-0.0413,0,-0.0348,-0.0347,-0.0347,-0.0297,-0.0297,-0.0297,-0.0296,-0.0212,-0.021,-0.0208,0,0,0,0,0,0,0,0,0,0,0,0,0,-0.0476,-0.0475,-0.0413,-0.0413,-0.0412,-0.0348,-0.0347,-0.0347,-0.0297,-0.0297,-0.0296,-0.0296,-0.0213,-0.0211,-0.0208,0,0,0,0,0,0,0,0,0,0,0,0,0,-0.0433,-0.0474,-0.0413,-0.038,-0.0376,-0.0349,-0.0347,-0.0346,-0.0298,-0.0297,-0.0296,-0.0296,-0.0213,-0.0211,-0.0208,-0.0204,0,0,-0.02,-0.0198,0,0,0,0,0,0,0,0,-0.0436,-0.0431,-0.0385,-0.0382,-0.0378,-0.033,-0.0338,-0.0298,-0.0298,-0.0327,-0.0296,-0.0295,-0.0251,-0.0245,-0.0234,-0.02,-0.0196,-0.0199,-0.0198,-0.0196,-0.0196,0,0,0,0,0,0,0,-0.0439,-0.0433,-0.0387,-0.0385,-0.038,-0.0361,-0.0355,-0.0331,-0.0293,-0.0325,-0.0321,-0.0314,-0.0248,-0.0237,-0.0231,-0.0195,-0.0199,-0.0197,-0.0195,-0.0194,-0.0146,-0.0147,0,0,0,0,0,0,-0.0449,-0.0436,-0.0389,-0.0385,-0.0406,-0.0361,-0.0353,-0.0346,-0.0293,-0.0285,-0.0315,-0.0312,-0.0242,-0.0235,-0.0228,-0.0219,-0.0197,-0.0194,-0.0192,-0.0146,-0.0146,-0.0147,0,0,0,0,0,0,-0.045,-0.0445,-0.0392,-0.041,-0.0401,-0.0361,-0.0353,-0.0345,-0.0332,-0.0286,-0.0277,-0.0309,-0.0241,-0.0232,-0.0211,-0.0216,-0.0193,-0.019,-0.0145,-0.0146,-0.0147,-0.0202,0,0,0,0,0,0,-0.0452,-0.0446,-0.0447,-0.041,-0.0401,-0.0381,-0.0353,-0.0344,-0.0329,-0.0325,-0.0278,-0.027,-0.024,-0.0215,-0.0208,-0.0211,-0.0188,-0.0145,-0.0146,-0.0146,-0.0199,-0.0204,-0.0208,0,0,0,0,0,-0.0455,-0.046,-0.0448,-0.0442,-0.0403,-0.0382,-0.0376,-0.0344,-0.033,-0.0329,-0.0298,-0.0271,-0.0215,-0.0214,-0.0205,-0.0207,-0.0145,-0.0146,-0.0146,-0.0197,-0.0203,-0.0208,0,0,0,0,0,0,-0.0486,-0.0454,-0.044,-0.0435,-0.0413,-0.0374,-0.037,-0.0349,-0.0324,-0.032,-0.0277,-0.0266,-0.025,-0.0223,-0.0223,-0.0196,-0.0175,-0.0174,-0.0217,-0.0222,-0.0226,-0.0231,-0.0186,0,0,0,0,0,-0.0495,-0.0491,-0.0457,-0.0454,-0.0445,-0.0409,-0.0397,-0.0377,-0.0349,-0.0337,-0.0305,-0.0272,-0.0247,-0.0231,-0.0206,-0.0192,-0.0165,-0.0187,-0.0192,-0.0196,-0.0194,-0.0164,-0.0165,-0.015,-0.015,-0.015,0,0,-0.0507,-0.0489,-0.0486,-0.046,-0.044,-0.0435,-0.0401,-0.0387,-0.0381,-0.0332,-0.0318,-0.0288,-0.0248,-0.0232,-0.0222,-0.0209,-0.0188,-0.0197,-0.02,-0.0196,-0.0165,-0.0166,-0.0168,-0.015,-0.015,-0.015,0,0,-0.0533,-0.0512,-0.052,-0.0506,-0.0482,-0.0458,-0.0457,-0.0422,-0.0404,-0.0388,-0.0352,-0.0326,-0.0289,-0.0259,-0.024,-0.0253,-0.0215,-0.0246,-0.0267,-0.0239,-0.024,-0.024,-0.0218,-0.0216,-0.0245,-0.0245,-0.0245,0,-0.055,-0.0552,-0.052,-0.0525,-0.0519,-0.0472,-0.0481,-0.0456,-0.0419,-0.0408,-0.0392,-0.0334,-0.0301,-0.0274,-0.0277,-0.0262,-0.0242,-0.0252,-0.0245,-0.0245,-0.0244,-0.0221,-0.0218,-0.0248,-0.0248,-0.0247,-0.0247,0,-0.0582,-0.0585,-0.0589,-0.0578,-0.0567,-0.0567,-0.053,-0.0516,-0.0488,-0.046,-0.0431,-0.0384,-0.0347,-0.0334,-0.0307,-0.0288,-0.0274,-0.0257,-0.0233,-0.0249,-0.0224,-0.022,-0.0252,-0.0251,-0.025,-0.0249,0,0,-0.062,-0.0614,-0.0616,-0.0626,-0.0597,-0.0593,-0.058,-0.0555,-0.055,-0.0505,-0.0493,-0.0441,-0.0408,-0.0383,-0.0345,-0.0314,-0.0295,-0.0287,-0.0284,-0.0268,-0.0238,-0.0191,-0.0182,-0.0279,-0.0278,-0.0278,-0.0225,0,-0.0657,-0.0687,-0.0666,-0.069,-0.0703,-0.066,-0.0653,-0.0623,-0.0588,-0.0564,-0.0501,-0.0475,-0.0428,-0.0414,-0.0375,-0.0314,-0.0286,-0.0311,-0.0221,-0.0219,-0.0177,-0.0175,-0.0171,-0.012,-0.022,-0.022,-0.0219,0,-0.07,-0.0714,-0.0748,-0.0754,-0.0754,-0.0755,-0.0736,-0.0725,-0.067,-0.0644,-0.0594,-0.0542,-0.0482,-0.0447,-0.0345,-0.0364,-0.0307,-0.0259,-0.0255,-0.0187,-0.0163,-0.0117,-0.0108,-0.001,-0.0213,-0.0213,-0.0214,0,-0.0755,-0.0774,-0.0804,-0.0807,-0.08,-0.0803,-0.0792,-0.075,-0.0746,-0.0692,-0.0679,-0.0595,-0.0556,-0.0469,-0.0351,-0.0353,-0.024,-0.0231,-0.0137,-0.0134,-0.0098,-0.0092,0.0017,-0.0169,-0.0169,-0.0169,-0.017,0,-0.081,-0.0835,-0.0835,-0.0854,-0.0891,-0.0859,-0.0879,-0.0856,-0.082,-0.0822,-0.0725,-0.0702,-0.056,-0.047,-0.0369,-0.0231,-0.0251,-0.0136,-0.0112,-0.0118,-0.0114,-0.0,0.0066,-0.0167,-0.0168,-0.0168,-0.0169,0,-0.0868,-0.0867,-0.0908,-0.0915,-0.0921,-0.0947,-0.0947,-0.0959,-0.0911,-0.0909,-0.0895,-0.0781,-0.0657,-0.0507,-0.0359,-0.0256,-0.0053,-0.0082,-0.0095,-0.0073,0.0109,0.0172,0.0363,0.0406,0.0026,0.0028,0.0029,0,-0.0901,-0.0926,-0.0962,-0.0996,-0.1002,-0.103,-0.1051,-0.1016,-0.1023,-0.096,-0.0964,-0.0837,-0.0745,-0.0489,-0.0286,-0.009,0.0007,0.0032,0.0037,0.013,0.0217,0.0282,0.0307,0.0054,0.0056,0.0057,0.0058,0,-0.096,-0.0969,-0.1005,-0.1074,-0.1112,-0.1154,-0.1172,-0.1187,-0.1146,-0.1127,-0.107,-0.0986,-0.0719,-0.048,-0.0199,-0.0076,0.0129,0.0063,0.0162,0.026,0.0335,0.0383,0.0003,0.0068,0.0067,0.0066,0.0066,0.0065,-0.0999,-0.1042,-0.1087,-0.1154,-0.1206,-0.1259,-0.1289,-0.1303,-0.1313,-0.1273,-0.1171,-0.1035,-0.065,-0.0246,-0.0101,0.0221,0.0226,0.0305,0.0375,0.0432,0.0483,0.0131,0.0225,0.0225,0.0225,0.0225,0.0225,0,-0.1046,-0.1093,-0.1162,-0.1239,-0.1307,-0.1311,-0.1357,-0.1378,-0.14,-0.1329,-0.1257,-0.0859,-0.0497,-0.0129,0.0355,0.052,0.0548,0.06,0.0674,0.0682,0.0365,0.0373,0.0499,0.0499,0.0499,0.0499,0.0499,0.0499,-0.107,-0.1145,-0.1183,-0.1306,-0.1357,-0.1425,-0.1448,-0.1483,-0.144,-0.1304,-0.1095,-0.0935,-0.0338,0.0455,0.0851,0.0856,0.0968,0.0982,0.1044,0.0803,0.0779,0.0757,0.0778,0.0988,0.0989,0.1313,0.1317,0.1319]}],[{"header":{"parameterUnit":"m.s-1","parameterCategory":2,"la1":30.2991,"la2":30.254,"lo1":-89.0895,"lo2":-89.0444,"dy":0.0017,"dx":0.0017,"nx":28,"ny":28,"refTime":"2024-02-16T03:00:00:Z","depth":"2","parameterNumber":2,"parameterNumberName":"U-component_of_CURRENTS"},"data":[0,0,0,0,0,0,0,0,0,0,0,0,0,0,0,0,0,0,0,0,0,0,0,0,0,0,0,0,0,0,0,0,0,0,0,0,0,0,0,0,0,0,0,0,0,0,0,0,0,0,0,0,0,0,0,0,0,0,-0.245,-0.245,0,-0.247,-0.247,-0.247,-0.2448,-0.2447,-0.2447,-0.2446,-0.2462,-0.2463,-0.2465,0,0,0,0,0,0,0,0,0,0,0,0,0,-0.2409,-0.241,-0.245,-0.245,-0.245,-0.247,-0.247,-0.247,-0.2448,-0.2447,-0.2446,-0.2446,-0.2462,-0.2463,-0.2465,0,0,0,0,0,0,0,0,0,0,0,0,0,-0.2427,-0.241,-0.245,-0.2443,-0.2442,-0.247,-0.247,-0.247,-0.2448,-0.2447,-0.2446,-0.2445,-0.2461,-0.2463,-0.2465,-0.2498,0,0,-0.247,-0.2471,0,0,0,0,0,0,0,0,-0.2426,-0.2428,-0.2443,-0.2443,-0.2443,-0.2456,-0.2462,-0.248,-0.2449,-0.2445,-0.2446,-0.2445,-0.2462,-0.2463,-0.2468,-0.2498,-0.2499,-0.247,-0.2471,-0.2472,-0.2472,0,0,0,0,0,0,0,-0.2424,-0.2427,-0.2457,-0.2444,-0.2443,-0.2444,-0.2445,-0.2465,-0.2458,-0.2445,-0.2444,-0.2448,-0.2461,-0.2466,-0.2468,-0.2499,-0.247,-0.2472,-0.2473,-0.2473,-0.2543,-0.2544,0,0,0,0,0,0,-0.2425,-0.2426,-0.2456,-0.2457,-0.2433,-0.2446,-0.2447,-0.2452,-0.2458,-0.2458,-0.2449,-0.2447,-0.2464,-0.2466,-0.2469,-0.249,-0.2472,-0.2473,-0.2474,-0.2543,-0.2544,-0.2545,0,0,0,0,0,0,-0.2424,-0.2427,-0.2455,-0.2443,-0.2447,-0.2448,-0.2454,-0.2453,-0.2455,-0.2461,-0.2461,-0.2451,-0.2463,-0.2466,-0.2487,-0.2491,-0.2474,-0.2476,-0.2542,-0.2543,-0.2544,-0.2544,0,0,0,0,0,0,-0.2423,-0.2427,-0.2429,-0.2443,-0.2447,-0.2473,-0.2455,-0.2454,-0.246,-0.2457,-0.2463,-0.2463,-0.2463,-0.2484,-0.2488,-0.2493,-0.2477,-0.2541,-0.2542,-0.2544,-0.2543,-0.2545,-0.2547,0,0,0,0,0,-0.2421,-0.2429,-0.2429,-0.2432,-0.245,-0.2473,-0.2476,-0.2472,-0.2461,-0.2468,-0.247,-0.2463,-0.2497,-0.2487,-0.2491,-0.2496,-0.254,-0.2542,-0.2544,-0.2542,-0.2545,-0.2547,0,0,0,0,0,0,-0.2413,-0.2428,-0.2428,-0.244,-0.2456,-0.247,-0.2474,-0.2476,-0.2484,-0.2478,-0.2479,-0.248,-0.2498,-0.2505,-0.2493,-0.2523,-0.2516,-0.2519,-0.2513,-0.2516,-0.2518,-0.2518,-0.2479,0,0,0,0,0,-0.2413,-0.242,-0.244,-0.2448,-0.2456,-0.2466,-0.2473,-0.2476,-0.2486,-0.2488,-0.2492,-0.25,-0.2512,-0.2519,-0.2531,-0.2554,-0.255,-0.256,-0.2562,-0.2564,-0.2568,-0.2557,-0.2558,-0.2551,-0.2551,-0.2551,0,0,-0.2411,-0.2421,-0.2424,-0.2447,-0.2455,-0.2476,-0.2467,-0.2481,-0.2496,-0.2491,-0.2506,-0.2509,-0.2521,-0.2539,-0.2547,-0.2543,-0.2567,-0.2566,-0.2567,-0.2571,-0.2559,-0.256,-0.256,-0.2552,-0.2552,-0.2552,0,0,-0.2417,-0.2421,-0.2431,-0.2449,-0.2468,-0.2479,-0.2485,-0.2503,-0.2505,-0.2528,-0.2523,-0.2531,-0.2554,-0.2559,-0.2565,-0.2592,-0.2578,-0.2594,-0.2603,-0.2592,-0.2592,-0.2592,-0.2594,-0.2594,-0.2594,-0.2594,-0.2594,0,-0.2415,-0.2429,-0.2439,-0.2459,-0.2471,-0.2482,-0.2501,-0.2516,-0.2537,-0.254,-0.2533,-0.2555,-0.2563,-0.2581,-0.2587,-0.2595,-0.2588,-0.2589,-0.2593,-0.2593,-0.2592,-0.2594,-0.2595,-0.2594,-0.2594,-0.2594,-0.2594,0,-0.2432,-0.2445,-0.2454,-0.248,-0.2498,-0.2514,-0.2539,-0.2552,-0.2553,-0.2563,-0.2575,-0.2583,-0.2592,-0.2596,-0.2601,-0.2608,-0.2605,-0.2594,-0.2581,-0.2593,-0.2595,-0.2595,-0.2594,-0.2594,-0.2594,-0.2594,0,0,-0.2415,-0.2457,-0.2458,-0.2469,-0.2507,-0.252,-0.255,-0.2574,-0.2586,-0.2595,-0.2605,-0.262,-0.2612,-0.262,-0.2621,-0.2616,-0.2613,-0.2605,-0.2605,-0.2598,-0.2595,-0.2609,-0.261,-0.2594,-0.2594,-0.2594,-0.2598,0,-0.242,-0.2454,-0.2476,-0.2504,-0.2519,-0.2543,-0.2569,-0.2593,-0.2608,-0.2625,-0.2623,-0.2635,-0.2626,-0.2626,-0.262,-0.262,-0.2613,-0.2614,-0.2593,-0.2593,-0.2595,-0.261,-0.2333,-0.2315,-0.2598,-0.2598,-0.2598,0,-0.2417,-0.2443,-0.247,-0.2506,-0.2514,-0.2536,-0.2566,-0.2593,-0.2626,-0.2637,-0.2644,-0.2648,-0.2655,-0.2638,-0.2629,-0.2627,-0.2613,-0.2606,-0.2605,-0.2618,-0.2607,-0.2349,-0.2304,-0.2598,-0.2598,-0.2598,-0.2598,0,-0.2381,-0.2428,-0.2443,-0.2458,-0.2511,-0.2523,-0.2547,-0.2588,-0.2612,-0.2642,-0.2663,-0.2661,-0.2671,-0.2645,-0.2648,-0.2628,-0.2641,-0.2608,-0.2606,-0.2607,-0.237,-0.2351,-0.2592,-0.2592,-0.2592,-0.2592,-0.2592,0,-0.2366,-0.2377,-0.2426,-0.2437,-0.2453,-0.2498,-0.2522,-0.2551,-0.2602,-0.2627,-0.2659,-0.2681,-0.2671,-0.2684,-0.2659,-0.265,-0.2646,-0.2615,-0.2609,-0.2366,-0.2348,-0.2591,-0.2591,-0.2592,-0.2592,-0.2592,-0.2592,0,-0.2315,-0.2355,-0.2369,-0.242,-0.2435,-0.2441,-0.2504,-0.252,-0.2587,-0.2623,-0.2634,-0.2698,-0.2714,-0.2722,-0.2703,-0.2677,-0.2658,-0.2655,-0.2391,-0.2355,-0.2623,-0.2623,-0.2629,-0.2629,-0.263,-0.263,-0.263,0,-0.2289,-0.2291,-0.2335,-0.2339,-0.236,-0.2389,-0.2405,-0.2487,-0.2517,-0.2626,-0.2635,-0.2698,-0.2718,-0.2736,-0.2662,-0.2623,-0.269,-0.239,-0.2308,-0.2633,-0.2626,-0.2626,-0.2625,-0.1982,-0.1977,-0.1973,-0.197,0,-0.2222,-0.2233,-0.2247,-0.2259,-0.2273,-0.2299,-0.2339,-0.2369,-0.2463,-0.2519,-0.2591,-0.2627,-0.2649,-0.2493,-0.2485,-0.2421,-0.2373,-0.2311,-0.2679,-0.2052,-0.2033,-0.2025,-0.2042,-0.1933,-0.1937,-0.1939,-0.1941,-0.1943,-0.2148,-0.2135,-0.2144,-0.2146,-0.217,-0.2178,-0.2161,-0.2226,-0.2269,-0.2298,-0.2427,-0.2396,-0.2376,-0.2226,-0.2127,-0.2041,-0.2218,-0.2081,-0.2087,-0.21,-0.206,-0.2047,-0.1942,-0.1945,-0.1948,-0.1951,-0.1954,0,-0.2029,-0.203,-0.2026,-0.2022,-0.1992,-0.2051,-0.2082,-0.2035,-0.2033,-0.2088,-0.2114,-0.1906,-0.1809,-0.1815,-0.1611,-0.161,-0.1523,-0.1545,-0.1386,-0.1425,-0.1459,-0.1381,-0.1085,-0.1082,-0.108,-0.1078,0,0,-0.1964,-0.1913,-0.1913,-0.1829,-0.183,-0.1746,-0.1733,-0.17,-0.17,-0.1644,-0.1613,-0.171,-0.1766,-0.1416,-0.1335,-0.1179,-0.1288,-0.1116,-0.1807,-0.1657,-0.1688,-0.176,-0.1686,0,0,0,0,0]},{"header":{"parameterUnit":"m.s-1","parameterCategory":2,"la1":30.2991,"la2":30.254,"lo1":-89.0895,"lo2":-89.0444,"dy":0.0017,"dx":0.0017,"nx":28,"ny":28,"refTime":"2024-02-16T03:00:00:Z","depth":"2","parameterNumber":3,"parameterNumberName":"V-component_of_CURRENTS"},"data":[0,0,0,0,0,0,0,0,0,0,0,0,0,0,0,0,0,0,0,0,0,0,0,0,0,0,0,0,0,0,0,0,0,0,0,0,0,0,0,0,0,0,0,0,0,0,0,0,0,0,0,0,0,0,0,0,0,0,-0.0345,-0.0345,0,-0.028,-0.0279,-0.0279,-0.023,-0.023,-0.0229,-0.0229,-0.0146,-0.0144,-0.0142,0,0,0,0,0,0,0,0,0,0,0,0,0,-0.0407,-0.0406,-0.0345,-0.0344,-0.0344,-0.028,-0.0279,-0.0278,-0.023,-0.023,-0.0229,-0.0229,-0.0146,-0.0144,-0.0142,0,0,0,0,0,0,0,0,0,0,0,0,0,-0.0365,-0.0406,-0.0345,-0.0312,-0.0309,-0.0281,-0.0279,-0.0278,-0.023,-0.023,-0.0229,-0.0229,-0.0147,-0.0145,-0.0142,-0.0137,0,0,-0.0133,-0.0132,0,0,0,0,0,0,0,0,-0.0367,-0.0362,-0.0318,-0.0314,-0.031,-0.0263,-0.0271,-0.023,-0.0231,-0.026,-0.0229,-0.0228,-0.0184,-0.0178,-0.0167,-0.0133,-0.0129,-0.0133,-0.0131,-0.013,-0.0129,0,0,0,0,0,0,0,-0.037,-0.0365,-0.0319,-0.0317,-0.0313,-0.0293,-0.0287,-0.0263,-0.0226,-0.0257,-0.0254,-0.0247,-0.0182,-0.017,-0.0165,-0.0128,-0.0133,-0.0131,-0.0129,-0.0128,-0.008,-0.0081,0,0,0,0,0,0,-0.038,-0.0368,-0.0321,-0.0317,-0.0338,-0.0293,-0.0286,-0.0279,-0.0226,-0.0218,-0.0248,-0.0245,-0.0175,-0.0168,-0.0162,-0.0154,-0.013,-0.0128,-0.0126,-0.008,-0.008,-0.0081,0,0,0,0,0,0,-0.0382,-0.0377,-0.0324,-0.0341,-0.0333,-0.0293,-0.0285,-0.0278,-0.0265,-0.0219,-0.021,-0.0242,-0.0174,-0.0166,-0.0145,-0.015,-0.0126,-0.0124,-0.008,-0.008,-0.0081,-0.0137,0,0,0,0,0,0,-0.0384,-0.0378,-0.0379,-0.0342,-0.0333,-0.0313,-0.0285,-0.0277,-0.0262,-0.0258,-0.0212,-0.0203,-0.0173,-0.0149,-0.0142,-0.0146,-0.0122,-0.0079,-0.008,-0.008,-0.0135,-0.0139,-0.0144,0,0,0,0,0,-0.0386,-0.0392,-0.038,-0.0374,-0.0335,-0.0314,-0.0308,-0.0276,-0.0262,-0.0262,-0.0231,-0.0205,-0.0149,-0.0147,-0.0139,-0.0142,-0.0079,-0.008,-0.008,-0.0133,-0.0139,-0.0143,0,0,0,0,0,0,-0.0418,-0.0386,-0.0372,-0.0367,-0.0345,-0.0306,-0.0303,-0.0282,-0.0257,-0.0254,-0.021,-0.02,-0.0184,-0.0157,-0.0157,-0.0131,-0.0109,-0.0108,-0.0152,-0.0157,-0.0161,-0.0165,-0.0119,0,0,0,0,0,-0.0427,-0.0423,-0.0389,-0.0386,-0.0378,-0.0342,-0.0331,-0.031,-0.0282,-0.027,-0.0239,-0.0206,-0.0182,-0.0165,-0.014,-0.0126,-0.0099,-0.0122,-0.0127,-0.0131,-0.0129,-0.0098,-0.0099,-0.0084,-0.0084,-0.0084,0,0,-0.0439,-0.0421,-0.0418,-0.0393,-0.0373,-0.0368,-0.0334,-0.0321,-0.0315,-0.0266,-0.0252,-0.0223,-0.0182,-0.0167,-0.0157,-0.0144,-0.0123,-0.0132,-0.0136,-0.0131,-0.0099,-0.01,-0.0101,-0.0084,-0.0084,-0.0084,0,0,-0.0465,-0.0445,-0.0453,-0.0439,-0.0415,-0.0391,-0.0391,-0.0356,-0.0339,-0.0323,-0.0287,-0.0262,-0.0225,-0.0195,-0.0175,-0.0189,-0.015,-0.0183,-0.0204,-0.0175,-0.0175,-0.0176,-0.0152,-0.015,-0.0182,-0.0182,-0.0182,0,-0.0483,-0.0485,-0.0453,-0.0458,-0.0451,-0.0406,-0.0414,-0.039,-0.0354,-0.0342,-0.0327,-0.0269,-0.0237,-0.021,-0.0213,-0.0199,-0.0177,-0.0188,-0.018,-0.018,-0.018,-0.0155,-0.0152,-0.0185,-0.0185,-0.0184,-0.0184,0,-0.0514,-0.0517,-0.0521,-0.0511,-0.0499,-0.0499,-0.0463,-0.0449,-0.0423,-0.0394,-0.0366,-0.032,-0.0283,-0.027,-0.0244,-0.0224,-0.021,-0.0193,-0.0168,-0.0185,-0.0157,-0.0153,-0.0189,-0.0188,-0.0187,-0.0186,0,0,-0.0553,-0.0546,-0.0548,-0.0557,-0.0528,-0.0525,-0.0512,-0.0487,-0.0481,-0.0438,-0.0425,-0.0375,-0.0343,-0.0319,-0.0281,-0.025,-0.0231,-0.0223,-0.022,-0.0202,-0.0169,-0.0125,-0.0116,-0.0214,-0.0213,-0.0212,-0.0155,0,-0.0589,-0.0618,-0.0596,-0.062,-0.0632,-0.059,-0.0583,-0.0553,-0.0518,-0.0494,-0.0433,-0.0407,-0.0363,-0.0349,-0.031,-0.0248,-0.022,-0.0248,-0.0153,-0.015,-0.0111,-0.011,-0.0085,-0.0029,-0.015,-0.015,-0.0149,0,-0.0631,-0.0644,-0.0677,-0.068,-0.0681,-0.0681,-0.0662,-0.0651,-0.0596,-0.057,-0.0522,-0.047,-0.0411,-0.0379,-0.0276,-0.0296,-0.024,-0.0191,-0.0187,-0.0121,-0.0098,-0.0029,-0.0016,-0.0141,-0.0142,-0.0143,-0.0143,0,-0.0685,-0.0702,-0.0731,-0.0733,-0.0725,-0.0728,-0.0717,-0.0676,-0.0671,-0.0616,-0.0603,-0.0519,-0.0481,-0.0394,-0.0279,-0.0282,-0.0166,-0.0158,-0.0067,-0.0063,-0.0009,-0.0002,-0.0095,-0.0095,-0.0095,-0.0095,-0.0095,0,-0.0738,-0.0762,-0.0761,-0.078,-0.0815,-0.0783,-0.0802,-0.0779,-0.0742,-0.0742,-0.0648,-0.0623,-0.0484,-0.0393,-0.0295,-0.0158,-0.0176,-0.0065,-0.0041,-0.0029,-0.0024,-0.0093,-0.0094,-0.0093,-0.0094,-0.0094,-0.0094,0,-0.0795,-0.0794,-0.0834,-0.0839,-0.0844,-0.087,-0.0869,-0.088,-0.0832,-0.0828,-0.0813,-0.0699,-0.0576,-0.0428,-0.028,-0.0179,-0.0055,-0.0007,-0.0001,0.0024,0.0027,0.0023,0.0096,0.0098,0.01,0.0101,0.0103,0,-0.0828,-0.0852,-0.0887,-0.092,-0.0926,-0.0952,-0.0973,-0.0937,-0.0942,-0.0876,-0.0878,-0.0752,-0.0658,-0.0403,-0.0193,0.0003,-0.0018,0.0127,0.0132,0.0033,0.0049,0.0042,0.0035,0.0175,0.0177,0.0178,0.0179,0,-0.0886,-0.0895,-0.093,-0.0997,-0.1034,-0.1074,-0.109,-0.1104,-0.1061,-0.1037,-0.0977,-0.0892,-0.0618,-0.0363,-0.0082,0.0036,0.0103,0.0162,0.0068,0.0123,0.0113,0.0126,0.0117,0.0192,0.0191,0.019,0.0189,0.0188,-0.0925,-0.0967,-0.1011,-0.1077,-0.1127,-0.1177,-0.1206,-0.1196,-0.1197,-0.1111,-0.1034,-0.085,-0.0602,-0.0169,0.0029,0.0232,0.0202,0.0264,0.0257,0.0249,0.0249,0.0243,0.0345,0.0345,0.0345,0.0344,0.0344,0,-0.0962,-0.1018,-0.1085,-0.116,-0.1214,-0.123,-0.1273,-0.1251,-0.1238,-0.1121,-0.1009,-0.0696,-0.039,-0.0137,0.0202,0.0376,0.0366,0.0403,0.0359,0.0347,0.0336,0.0337,0.0458,0.0459,0.0459,0.046,0,0,-0.0984,-0.1053,-0.109,-0.1202,-0.1262,-0.1303,-0.1325,-0.1282,-0.119,-0.1053,-0.0893,-0.066,-0.0371,-0.0109,0.0124,0.0298,0.027,0.032,0.0216,0.0126,0.0112,0.0252,0.024,0,0,0,0,0]}],[{"header":{"parameterUnit":"m.s-1","parameterCategory":2,"la1":30.2991,"la2":30.254,"lo1":-89.0895,"lo2":-89.0444,"dy":0.0017,"dx":0.0017,"nx":28,"ny":28,"refTime":"2024-02-16T03:00:00:Z","depth":"4","parameterNumber":2,"parameterNumberName":"U-component_of_CURRENTS"},"data":[0,0,0,0,0,0,0,0,0,0,0,0,0,0,0,0,0,0,0,0,0,0,0,0,0,0,0,0,0,0,0,0,0,0,0,0,0,0,0,0,0,0,0,0,0,0,0,0,0,0,0,0,0,0,0,0,0,0,-0.1614,-0.1615,0,-0.1685,-0.1686,-0.1687,-0.1728,-0.1728,-0.1728,-0.1729,-0.1804,-0.1806,-0.1808,0,0,0,0,0,0,0,0,0,0,0,0,0,-0.1521,-0.1523,-0.1614,-0.1615,-0.1616,-0.1685,-0.1686,-0.1687,-0.1728,-0.1728,-0.1729,-0.1729,-0.1804,-0.1806,-0.1808,0,0,0,0,0,0,0,0,0,0,0,0,0,-0.1573,-0.1523,-0.1614,-0.1646,-0.1649,-0.1685,-0.1686,-0.1687,-0.1728,-0.1728,-0.1729,-0.1729,-0.1803,-0.1806,-0.1808,-0.1816,0,0,-0.1816,-0.1817,0,0,0,0,0,0,0,0,-0.157,-0.1576,-0.164,-0.1644,-0.1648,-0.1699,-0.1681,-0.1731,-0.1728,-0.1697,-0.1729,-0.1729,-0.177,-0.1776,-0.1786,-0.1819,-0.1823,-0.1816,-0.1818,-0.1819,-0.182,0,0,0,0,0,0,0,-0.1566,-0.1573,-0.1641,-0.1641,-0.1646,-0.1659,-0.1667,-0.1691,-0.1729,-0.1699,-0.1703,-0.1713,-0.1772,-0.1783,-0.1788,-0.1824,-0.1816,-0.1819,-0.182,-0.1821,-0.1937,-0.1938,0,0,0,0,0,0,-0.1559,-0.157,-0.1639,-0.1643,-0.1611,-0.1661,-0.1669,-0.1681,-0.1729,-0.1737,-0.1712,-0.1714,-0.1779,-0.1785,-0.1791,-0.1862,-0.1819,-0.1822,-0.1823,-0.1935,-0.1937,-0.1938,0,0,0,0,0,0,-0.1557,-0.1565,-0.1636,-0.1609,-0.1619,-0.1662,-0.1675,-0.1682,-0.1721,-0.1739,-0.1747,-0.1747,-0.1779,-0.1787,-0.1839,-0.1863,-0.1823,-0.1825,-0.1933,-0.1936,-0.1938,-0.1967,0,0,0,0,0,0,-0.1554,-0.1564,-0.1585,-0.1609,-0.162,-0.1676,-0.1675,-0.1684,-0.1726,-0.173,-0.1771,-0.1777,-0.178,-0.1835,-0.1842,-0.1866,-0.1827,-0.1931,-0.1934,-0.1937,-0.1964,-0.197,-0.1974,0,0,0,0,0,-0.1551,-0.1572,-0.1585,-0.1595,-0.1643,-0.1677,-0.1685,-0.1715,-0.1727,-0.1751,-0.178,-0.1777,-0.1857,-0.1839,-0.1846,-0.1871,-0.193,-0.1934,-0.1937,-0.1961,-0.1968,-0.1974,0,0,0,0,0,0,-0.1545,-0.1579,-0.1594,-0.1627,-0.1659,-0.1685,-0.1714,-0.1732,-0.1774,-0.1786,-0.1798,-0.1807,-0.1859,-0.1866,-0.1845,-0.1914,-0.1892,-0.1897,-0.1909,-0.1915,-0.1921,-0.1916,-0.1829,0,0,0,0,0,-0.1553,-0.158,-0.1611,-0.1642,-0.1659,-0.1692,-0.1716,-0.1737,-0.177,-0.179,-0.1818,-0.1848,-0.1874,-0.1896,-0.1921,-0.1962,-0.1949,-0.1983,-0.1989,-0.1993,-0.1996,-0.1992,-0.1996,-0.1949,-0.1949,-0.1949,0,0,-0.156,-0.1583,-0.16,-0.1643,-0.1671,-0.1704,-0.1708,-0.1752,-0.1786,-0.1791,-0.1853,-0.1872,-0.1891,-0.1934,-0.1958,-0.1946,-0.2002,-0.1997,-0.2001,-0.2001,-0.1996,-0.2,-0.2004,-0.1952,-0.1951,-0.1951,0,0,-0.1578,-0.1609,-0.1636,-0.1665,-0.1713,-0.1733,-0.1752,-0.1796,-0.1824,-0.1879,-0.1888,-0.1923,-0.1973,-0.1985,-0.1996,-0.2049,-0.203,-0.2062,-0.2087,-0.2083,-0.2086,-0.2089,-0.208,-0.2081,-0.2065,-0.2065,-0.2065,0,-0.159,-0.1623,-0.165,-0.1684,-0.1712,-0.1748,-0.1783,-0.1817,-0.1875,-0.1896,-0.1907,-0.1973,-0.1993,-0.2028,-0.205,-0.206,-0.2052,-0.2058,-0.2088,-0.209,-0.2092,-0.2082,-0.2083,-0.2067,-0.2067,-0.2066,-0.2066,0,-0.1617,-0.1657,-0.1677,-0.1728,-0.1763,-0.1801,-0.1844,-0.1887,-0.1924,-0.1949,-0.2004,-0.2029,-0.2062,-0.2078,-0.2084,-0.2115,-0.2103,-0.2092,-0.2065,-0.2098,-0.2086,-0.2087,-0.2069,-0.2069,-0.2068,-0.2068,0,0,-0.1601,-0.1681,-0.1691,-0.1722,-0.179,-0.1817,-0.1877,-0.1927,-0.1964,-0.2014,-0.2052,-0.21,-0.211,-0.2124,-0.2133,-0.2138,-0.2152,-0.2129,-0.2128,-0.2109,-0.2141,-0.2025,-0.2014,-0.2144,-0.2145,-0.2145,-0.2126,0,-0.1616,-0.1678,-0.1717,-0.1781,-0.1814,-0.1865,-0.1913,-0.1966,-0.2012,-0.2059,-0.2082,-0.2125,-0.2128,-0.2149,-0.2155,-0.2157,-0.2156,-0.2158,-0.2122,-0.2121,-0.2004,-0.2012,-0.2146,-0.2126,-0.2126,-0.2126,-0.2126,0,-0.1618,-0.1663,-0.1728,-0.1802,-0.1822,-0.187,-0.1944,-0.1992,-0.2058,-0.2092,-0.213,-0.2152,-0.2183,-0.2175,-0.218,-0.2182,-0.2168,-0.216,-0.2158,-0.2038,-0.2005,-0.2087,-0.2127,-0.2127,-0.2127,-0.2127,-0.2127,0,-0.1573,-0.1662,-0.1714,-0.1742,-0.1836,-0.1879,-0.193,-0.2004,-0.2046,-0.2115,-0.2148,-0.2177,-0.2204,-0.2191,-0.2191,-0.2186,-0.2183,-0.2166,-0.2044,-0.2036,-0.2134,-0.2131,-0.2157,-0.2157,-0.2157,-0.2157,-0.2157,0,-0.1551,-0.1594,-0.1704,-0.1732,-0.1793,-0.1866,-0.1933,-0.1986,-0.2063,-0.2096,-0.2162,-0.2181,-0.2212,-0.2217,-0.2196,-0.212,-0.2183,-0.2043,-0.2019,-0.2148,-0.2147,-0.2134,-0.2132,-0.2156,-0.2157,-0.2157,-0.2157,0,-0.1486,-0.1562,-0.1625,-0.1737,-0.1775,-0.1818,-0.1931,-0.1965,-0.2056,-0.2102,-0.2124,-0.2194,-0.2191,-0.2207,-0.2191,-0.2116,-0.2063,-0.2022,-0.2166,-0.2152,-0.1916,-0.1916,-0.1861,-0.1857,-0.1853,-0.185,-0.1847,0,-0.1455,-0.1484,-0.1612,-0.1649,-0.1706,-0.1788,-0.1832,-0.1942,-0.1974,-0.2084,-0.2082,-0.2136,-0.2159,-0.204,-0.2073,-0.201,-0.199,-0.1943,-0.1917,-0.1901,-0.1884,-0.189,-0.1894,-0.1841,-0.184,-0.1839,-0.1839,0,-0.1388,-0.1447,-0.1498,-0.1577,-0.164,-0.1696,-0.1771,-0.1786,-0.1891,-0.1999,-0.1981,-0.1969,-0.197,-0.1946,-0.1923,-0.1879,-0.1958,-0.1904,-0.1911,-0.1886,-0.1876,-0.1865,-0.1874,-0.1826,-0.1828,-0.1829,-0.1829,0,-0.1333,-0.1349,-0.1424,-0.1476,-0.1552,-0.157,-0.163,-0.1659,-0.1707,-0.183,-0.1818,-0.1875,-0.1949,-0.1878,-0.1853,-0.1806,-0.1767,-0.1689,-0.1706,-0.1721,-0.1683,-0.1651,-0.1502,0,0,0,0,0,-0.1264,-0.1268,-0.1312,-0.1361,-0.1431,-0.1469,-0.1566,-0.1626,-0.1737,-0.1676,-0.1743,-0.1731,-0.1696,-0.1731,-0.1648,-0.1784,-0.1775,-0.1679,-0.1696,-0.1755,-0.1769,-0.1738,0,0,0,0,0,0,-0.1217,-0.1255,-0.1269,-0.1251,-0.1258,-0.1313,-0.1366,-0.1444,-0.1423,-0.1542,-0.1535,-0.1618,-0.1615,-0.1715,-0.161,-0.1617,-0.1589,-0.1723,-0.1718,-0.1746,-0.176,-0.1772,-0.1744,0,0,0,0,0]},{"header":{"parameterUnit":"m.s-1","parameterCategory":2,"la1":30.2991,"la2":30.254,"lo1":-89.0895,"lo2":-89.0444,"dy":0.0017,"dx":0.0017,"nx":28,"ny":28,"refTime":"2024-02-16T03:00:00:Z","depth":"4","parameterNumber":3,"parameterNumberName":"V-component_of_CURRENTS"},"data":[0,0,0,0,0,0,0,0,0,0,0,0,0,0,0,0,0,0,0,0,0,0,0,0,0,0,0,0,0,0,0,0,0,0,0,0,0,0,0,0,0,0,0,0,0,0,0,0,0,0,0,0,0,0,0,0,0,0,-0.0098,-0.0097,0,-0.0055,-0.0055,-0.0054,-0.0017,-0.0017,-0.0017,-0.0016,0.0043,0.0044,0.0045,0,0,0,0,0,0,0,0,0,0,0,0,0,-0.0127,-0.0126,-0.0098,-0.0097,-0.0097,-0.0055,-0.0055,-0.0054,-0.0017,-0.0017,-0.0017,-0.0016,0.0042,0.0044,0.0045,0,0,0,0,0,0,0,0,0,0,0,0,0,-0.0102,-0.0126,-0.0098,-0.0074,-0.0071,-0.0056,-0.0055,-0.0054,-0.0018,-0.0017,-0.0016,-0.0016,0.0042,0.0043,0.0045,0.0045,0,0,0.0051,0.0052,0,0,0,0,0,0,0,0,-0.0103,-0.0101,-0.0078,-0.0075,-0.0073,-0.0041,-0.0043,-0.002,-0.0018,-0.0037,-0.0016,-0.0016,0.0015,0.0019,0.0026,0.0048,0.0051,0.0051,0.0052,0.0053,0.0053,0,0,0,0,0,0,0,-0.0105,-0.0102,-0.008,-0.0077,-0.0074,-0.0058,-0.0054,-0.0039,-0.0014,-0.0036,-0.0033,-0.0029,0.0017,0.0025,0.0028,0.0051,0.0051,0.0053,0.0054,0.0054,0.0074,0.0074,0,0,0,0,0,0,-0.0113,-0.0104,-0.0082,-0.0079,-0.0087,-0.0058,-0.0054,-0.0052,-0.0014,-0.0009,-0.003,-0.0028,0.0021,0.0026,0.003,0.0025,0.0053,0.0055,0.0056,0.0075,0.0074,0.0073,0,0,0,0,0,0,-0.0114,-0.0111,-0.0083,-0.0091,-0.0086,-0.0059,-0.0056,-0.0051,-0.0044,-0.001,-0.0004,-0.0028,0.0022,0.0028,0.0038,0.0028,0.0055,0.0057,0.0075,0.0075,0.0074,0.0018,0,0,0,0,0,0,-0.0115,-0.0112,-0.0117,-0.0092,-0.0086,-0.0081,-0.0057,-0.0051,-0.0042,-0.0039,-0.0007,-0.0,0.0023,0.0035,0.004,0.0031,0.0059,0.0076,0.0075,0.0074,0.0021,0.0016,0.0011,0,0,0,0,0,-0.0116,-0.0125,-0.0117,-0.0115,-0.0092,-0.0082,-0.0078,-0.0056,-0.0043,-0.0046,-0.0024,-0.0002,0.0032,0.0036,0.0042,0.0033,0.0077,0.0075,0.0074,0.0023,0.0017,0.0011,0,0,0,0,0,0,-0.014,-0.0122,-0.0112,-0.0115,-0.0103,-0.0076,-0.0077,-0.0061,-0.0046,-0.0043,-0.0009,-0.0002,0.0002,0.0024,0.0028,0.0035,0.0058,0.0058,0.0017,0.0012,0.0007,0.0006,0.006,0,0,0,0,0,-0.0148,-0.015,-0.013,-0.0133,-0.0129,-0.0105,-0.0098,-0.0084,-0.0065,-0.0058,-0.0036,-0.0014,0.0001,0.0011,0.0027,0.0031,0.0065,0.0029,0.0024,0.002,0.0023,0.006,0.0059,0.0069,0.0069,0.0069,0,0,-0.0159,-0.0149,-0.015,-0.0139,-0.0127,-0.0128,-0.0099,-0.0095,-0.0095,-0.0054,-0.0052,-0.0032,-0.0002,0.0001,0.0005,0.0019,0.0035,0.0018,0.0015,0.0021,0.0059,0.0058,0.0058,0.0068,0.0069,0.0069,0,0,-0.0181,-0.0173,-0.0182,-0.0177,-0.0164,-0.0149,-0.0151,-0.013,-0.012,-0.0117,-0.0088,-0.0073,-0.0053,-0.0031,-0.0018,-0.004,0.0006,-0.0037,-0.0058,-0.0023,-0.0023,-0.0023,0.0018,0.0022,-0.0037,-0.0037,-0.0037,0,-0.0195,-0.0202,-0.0184,-0.0192,-0.0191,-0.0163,-0.0173,-0.0162,-0.014,-0.0132,-0.0125,-0.0087,-0.0068,-0.0051,-0.006,-0.0051,-0.0019,-0.004,-0.0029,-0.0028,-0.0027,0.0016,0.0021,-0.004,-0.0039,-0.0039,-0.0039,0,-0.0221,-0.023,-0.0236,-0.0237,-0.0234,-0.0239,-0.0222,-0.0218,-0.0204,-0.0185,-0.017,-0.0141,-0.0114,-0.011,-0.0093,-0.0077,-0.0053,-0.0042,-0.0014,-0.0031,0.0015,0.0021,-0.0044,-0.0043,-0.0042,-0.0041,0,0,-0.0242,-0.0253,-0.0256,-0.0265,-0.0258,-0.0259,-0.0263,-0.0251,-0.0248,-0.0228,-0.0215,-0.0195,-0.0169,-0.0152,-0.0125,-0.0096,-0.0068,-0.007,-0.0067,-0.0029,0.0019,0.0023,0.0032,-0.0053,-0.0052,-0.0051,0.0047,0,-0.0267,-0.0297,-0.0292,-0.0317,-0.0329,-0.031,-0.0315,-0.0301,-0.0283,-0.0265,-0.0225,-0.0208,-0.0188,-0.0176,-0.0145,-0.0085,-0.0052,-0.0095,0.003,0.0034,0.004,0.0038,-0.0049,0.0052,0.0054,0.0055,0.0056,0,-0.0293,-0.0309,-0.0341,-0.0355,-0.0358,-0.0369,-0.0364,-0.0365,-0.0331,-0.0316,-0.0284,-0.0245,-0.02,-0.0184,-0.0085,-0.0111,-0.0053,-0.0006,-0.0001,0.0029,0.005,0.0074,0.0069,0.0068,0.0067,0.0066,0.0065,0,-0.0314,-0.0341,-0.0369,-0.0376,-0.0387,-0.0398,-0.0401,-0.0382,-0.0382,-0.0345,-0.0332,-0.0268,-0.0236,-0.0156,-0.0061,-0.007,0.0058,0.0059,0.0122,0.0124,0.0116,0.0115,0.013,0.013,0.013,0.0129,0.0129,0,-0.0337,-0.036,-0.0385,-0.0401,-0.0435,-0.0429,-0.0451,-0.0443,-0.0424,-0.0421,-0.036,-0.0333,-0.0228,-0.0142,-0.0057,0.0058,0.0064,0.0124,0.0149,0.0089,0.0084,0.0121,0.0119,0.0133,0.0132,0.0131,0.0131,0,-0.0353,-0.037,-0.0408,-0.0435,-0.0449,-0.0474,-0.0499,-0.0508,-0.0484,-0.0475,-0.0464,-0.0375,-0.0266,-0.0148,-0.0009,0.0058,0.0169,0.0208,0.0146,0.0166,0.0212,0.0206,0.0287,0.0288,0.0289,0.0289,0.029,0,-0.0361,-0.0383,-0.044,-0.0472,-0.049,-0.0527,-0.0553,-0.0547,-0.0549,-0.0498,-0.0488,-0.0385,-0.0316,-0.0105,0.0013,0.0187,0.0203,0.0267,0.0227,0.0212,0.0229,0.0221,0.0213,0.0291,0.0291,0.0292,0.0292,0,-0.0376,-0.0402,-0.0435,-0.0505,-0.0549,-0.0592,-0.0619,-0.0624,-0.0605,-0.0584,-0.0503,-0.039,-0.0262,-0.0107,0.0032,0.0153,0.0229,0.0276,0.0275,0.0237,0.0218,0.0232,0.0224,0.0295,0.0294,0.0294,0.0294,0,-0.0387,-0.042,-0.0471,-0.0528,-0.0591,-0.0633,-0.0648,-0.0638,-0.0633,-0.0568,-0.0541,-0.0398,-0.0315,-0.0123,0.0007,0.0126,0.0146,0.0178,0.0182,0.0181,0.0115,0.0073,0.013,0,0,0,0,0,-0.039,-0.0429,-0.0488,-0.0553,-0.0616,-0.0647,-0.0679,-0.068,-0.0659,-0.0611,-0.0574,-0.0454,-0.0253,-0.0156,-0.0038,0.0013,0.0162,0.0155,0.0199,0.031,0.0307,0.0247,0,0,0,0,0,0,-0.0395,-0.0451,-0.0485,-0.0559,-0.0604,-0.0665,-0.0688,-0.0677,-0.0637,-0.06,-0.0492,-0.0427,-0.0232,-0.0326,-0.0037,0.0002,0.0046,0.0253,0.0256,0.0312,0.0309,0.0306,0.0243,0,0,0,0,0]}]]